| time (UTC) | temp F | wind direction | speed MPH | gust MPH | rain 1hr in | rain 24hr in | rain mn in | humidity % | barometer mb |
| 20260906165143 | 62 | 86 | 1.0 | 6.0 | 0.00 | 0.00 | 0.00 | 76 | 1016.1 |
| 20260906164123 | 62 | 72 | 2.0 | 10.0 | 0.00 | 0.00 | 0.00 | 77 | 1016.3 |
| 20260906163145 | 61 | 81 | 2.0 | 11.0 | 0.00 | 0.00 | 0.00 | 78 | 1016.3 |
| 20260906162122 | 61 | 74 | 2.0 | 10.0 | 0.00 | 0.00 | 0.00 | 79 | 1016.2 |
| 20260906161124 | 61 | 87 | 1.0 | 5.0 | 0.00 | 0.00 | 0.00 | 81 | 1016.3 |
| 20260906160123 | 60 | 73 | 1.0 | 6.0 | 0.00 | 0.00 | 0.00 | 81 | 1016.6 |
| 20260906155144 | 59 | 105 | 1.0 | 5.0 | 0.00 | 0.00 | 0.00 | 83 | 1016.5 |
| 20260906154122 | 59 | 119 | 1.0 | 5.0 | 0.00 | 0.00 | 0.00 | 84 | 1016.5 |
| 20260906153122 | 59 | 90 | 1.0 | 5.0 | 0.00 | 0.00 | 0.00 | 85 | 1016.6 |
| 20260906152145 | 58 | 118 | 1.0 | 6.0 | 0.00 | 0.00 | 0.00 | 85 | 1016.5 |
| 20260906151143 | 58 | 107 | 1.0 | 6.0 | 0.00 | 0.00 | 0.00 | 85 | 1016.6 |
| 20260906150122 | 57 | 117 | 1.0 | 5.0 | 0.00 | 0.00 | 0.00 | 87 | 1016.5 |
| 20260906145122 | 57 | 111 | 0.0 | 5.0 | 0.00 | 0.00 | 0.00 | 88 | 1016.7 |
| 20260906144123 | 56 | 0 | 0.0 | 0.0 | 0.00 | 0.00 | 0.00 | 89 | 1016.5 |
| 20260906143122 | 56 | 0 | 0.0 | 0.0 | 0.00 | 0.00 | 0.00 | 89 | 1016.6 |
| 20260906142122 | 55 | 0 | 0.0 | 0.0 | 0.00 | 0.00 | 0.00 | 91 | 1016.4 |
| 20260906141124 | 54 | 0 | 0.0 | 0.0 | 0.00 | 0.00 | 0.00 | 91 | 1016.4 |
| 20260906140122 | 53 | 0 | 0.0 | 0.0 | 0.00 | 0.00 | 0.00 | 90 | 1016.2 |
| 20260906135125 | 53 | 0 | 0.0 | 0.0 | 0.00 | 0.00 | 0.00 | 90 | 1016.2 |
| 20260906134122 | 53 | 0 | 0.0 | 0.0 | 0.00 | 0.00 | 0.00 | 90 | 1016.2 |
| 20260906133122 | 53 | 0 | 0.0 | 0.0 | 0.00 | 0.00 | 0.00 | 90 | 1016.2 |
| 20260906132124 | 54 | 0 | 0.0 | 0.0 | 0.00 | 0.00 | 0.00 | 90 | 1016.1 |
| 20260906131122 | 54 | 0 | 0.0 | 0.0 | 0.00 | 0.00 | 0.00 | 90 | 1016.1 |
| 20260906130122 | 54 | 0 | 0.0 | 0.0 | 0.00 | 0.00 | 0.00 | 90 | 1016.2 |
| 20260906125122 | 54 | 0 | 0.0 | 0.0 | 0.00 | 0.00 | 0.00 | 90 | 1016.2 |
| 20260906124122 | 54 | 0 | 0.0 | 0.0 | 0.00 | 0.00 | 0.00 | 89 | 1016.2 |
| 20260906123122 | 54 | 0 | 0.0 | 0.0 | 0.00 | 0.00 | 0.00 | 90 | 1016.3 |
| 20260906122122 | 54 | 0 | 0.0 | 0.0 | 0.00 | 0.00 | 0.00 | 90 | 1016.4 |
| 20260906121122 | 54 | 0 | 0.0 | 0.0 | 0.00 | 0.00 | 0.00 | 90 | 1016.4 |
| 20260906120124 | 54 | 0 | 0.0 | 0.0 | 0.00 | 0.00 | 0.00 | 89 | 1016.4 |
| 20260906115122 | 55 | 0 | 0.0 | 0.0 | 0.00 | 0.00 | 0.00 | 88 | 1016.4 |
| 20260906114124 | 55 | 0 | 0.0 | 0.0 | 0.00 | 0.00 | 0.00 | 89 | 1016.3 |
| 20260906113122 | 55 | 0 | 0.0 | 0.0 | 0.00 | 0.00 | 0.00 | 89 | 1016.3 |
| 20260906112146 | 55 | 0 | 0.0 | 0.0 | 0.00 | 0.00 | 0.00 | 89 | 1016.3 |
| 20260906111122 | 55 | 0 | 0.0 | 0.0 | 0.00 | 0.00 | 0.00 | 89 | 1016.2 |
| 20260906110122 | 55 | 0 | 0.0 | 0.0 | 0.00 | 0.00 | 0.00 | 88 | 1016.3 |
| 20260906105143 | 55 | 0 | 0.0 | 0.0 | 0.00 | 0.00 | 0.00 | 88 | 1016.2 |
| 20260906104122 | 55 | 0 | 0.0 | 0.0 | 0.00 | 0.00 | 0.00 | 88 | 1016.4 |
| 20260906103122 | 55 | 0 | 0.0 | 0.0 | 0.00 | 0.00 | 0.00 | 88 | 1016.4 |
| 20260906102124 | 56 | 0 | 0.0 | 0.0 | 0.00 | 0.00 | 0.00 | 87 | 1016.3 |
| 20260906101145 | 56 | 0 | 0.0 | 0.0 | 0.00 | 0.00 | 0.00 | 87 | 1016.4 |
| 20260906100144 | 56 | 0 | 0.0 | 0.0 | 0.00 | 0.00 | 0.00 | 88 | 1016.3 |
| 20260906095122 | 56 | 0 | 0.0 | 0.0 | 0.00 | 0.00 | 0.00 | 87 | 1016.3 |
| 20260906094145 | 56 | 0 | 0.0 | 0.0 | 0.00 | 0.00 | 0.00 | 86 | 1016.3 |
| 20260906093143 | 57 | 0 | 0.0 | 0.0 | 0.00 | 0.00 | 0.00 | 86 | 1016.3 |
| 20260906092122 | 57 | 0 | 0.0 | 0.0 | 0.00 | 0.00 | 0.00 | 86 | 1016.5 |
| 20260906091124 | 57 | 0 | 0.0 | 0.0 | 0.00 | 0.00 | 0.00 | 85 | 1016.5 |
| 20260906090124 | 58 | 0 | 0.0 | 0.0 | 0.00 | 0.00 | 0.00 | 84 | 1016.5 |
| 20260906085143 | 58 | 0 | 0.0 | 0.0 | 0.00 | 0.00 | 0.00 | 85 | 1016.5 |
| 20260906084122 | 58 | 0 | 0.0 | 0.0 | 0.00 | 0.00 | 0.00 | 85 | 1016.5 |
| 20260906083122 | 58 | 0 | 0.0 | 0.0 | 0.00 | 0.00 | 0.00 | 84 | 1016.6 |
| 20260906082122 | 59 | 0 | 0.0 | 0.0 | 0.00 | 0.00 | 0.00 | 84 | 1016.6 |
| 20260906081145 | 58 | 0 | 0.0 | 0.0 | 0.00 | 0.00 | 0.00 | 84 | 1016.5 |
| 20260906080122 | 58 | 0 | 0.0 | 0.0 | 0.00 | 0.00 | 0.00 | 84 | 1016.5 |
| 20260906075123 | 58 | 0 | 0.0 | 0.0 | 0.00 | 0.00 | 0.00 | 83 | 1016.6 |
| 20260906074122 | 59 | 0 | 0.0 | 0.0 | 0.00 | 0.00 | 0.00 | 83 | 1016.5 |
| 20260906073143 | 59 | 0 | 0.0 | 0.0 | 0.00 | 0.00 | 0.00 | 83 | 1016.6 |
| 20260906072143 | 59 | 112 | 0.0 | 2.0 | 0.00 | 0.00 | 0.00 | 83 | 1016.6 |
| 20260906071125 | 60 | 109 | 0.0 | 3.0 | 0.00 | 0.00 | 0.00 | 83 | 1016.7 |
| 20260906070122 | 60 | 129 | 2.0 | 10.0 | 0.00 | 0.00 | 0.00 | 82 | 1016.8 |
| 20260906065122 | 60 | 125 | 5.0 | 13.0 | 0.00 | 0.00 | 0.00 | 82 | 1016.9 |
| 20260906064143 | 60 | 127 | 3.0 | 6.0 | 0.00 | 0.00 | 0.00 | 83 | 1017.0 |
| 20260906063122 | 60 | 110 | 2.0 | 6.0 | 0.00 | 0.00 | 0.00 | 83 | 1016.9 |
| 20260906062124 | 61 | 105 | 0.0 | 3.0 | 0.00 | 0.00 | 0.00 | 82 | 1016.8 |
| 20260906061124 | 61 | 131 | 2.0 | 6.0 | 0.00 | 0.00 | 0.00 | 82 | 1016.7 |
| 20260906060122 | 61 | 129 | 2.0 | 5.0 | 0.00 | 0.00 | 0.00 | 80 | 1016.6 |
| 20260906055124 | 61 | 0 | 0.0 | 0.0 | 0.00 | 0.00 | 0.00 | 79 | 1016.4 |
| 20260906054122 | 62 | 0 | 0.0 | 2.0 | 0.00 | 0.00 | 0.00 | 78 | 1016.3 |
| 20260906053122 | 62 | 0 | 0.0 | 0.0 | 0.00 | 0.00 | 0.00 | 77 | 1016.4 |
| 20260906052127 | 62 | 0 | 0.0 | 0.0 | 0.00 | 0.00 | 0.00 | 77 | 1016.5 |
| 20260906051143 | 62 | 0 | 0.0 | 0.0 | 0.00 | 0.00 | 0.00 | 75 | 1016.6 |
| 20260906050122 | 62 | 0 | 0.0 | 0.0 | 0.00 | 0.00 | 0.00 | 73 | 1016.7 |
| 20260906045122 | 63 | 138 | 0.0 | 5.0 | 0.00 | 0.00 | 0.00 | 72 | 1016.7 |
| 20260906044124 | 63 | 126 | 2.0 | 6.0 | 0.00 | 0.00 | 0.00 | 72 | 1016.8 |
| 20260906043143 | 63 | 129 | 0.0 | 2.0 | 0.00 | 0.00 | 0.00 | 71 | 1016.7 |
| 20260906042122 | 63 | 0 | 0.0 | 0.0 | 0.00 | 0.00 | 0.00 | 70 | 1016.7 |
| 20260906041122 | 63 | 0 | 0.0 | 0.0 | 0.00 | 0.00 | 0.00 | 69 | 1016.8 |
| 20260906040122 | 64 | 200 | 0.0 | 2.0 | 0.00 | 0.00 | 0.00 | 68 | 1016.7 |
| 20260906035124 | 64 | 225 | 0.0 | 3.0 | 0.00 | 0.00 | 0.00 | 67 | 1016.6 |
| 20260906034143 | 65 | 0 | 0.0 | 2.0 | 0.00 | 0.00 | 0.00 | 66 | 1016.7 |
| 20260906033124 | 65 | 258 | 0.0 | 3.0 | 0.00 | 0.00 | 0.00 | 65 | 1016.6 |
| 20260906032122 | 66 | 251 | 1.0 | 5.0 | 0.00 | 0.00 | 0.00 | 64 | 1016.3 |
| 20260906031122 | 66 | 284 | 1.0 | 10.0 | 0.00 | 0.00 | 0.00 | 61 | 1016.4 |
| 20260906030122 | 66 | 292 | 2.0 | 8.0 | 0.00 | 0.00 | 0.00 | 59 | 1016.4 |
| 20260906025122 | 67 | 277 | 2.0 | 6.0 | 0.00 | 0.00 | 0.00 | 58 | 1016.4 |
| 20260906024122 | 68 | 273 | 3.0 | 13.0 | 0.00 | 0.00 | 0.00 | 59 | 1016.3 |
| 20260906023122 | 68 | 269 | 3.0 | 13.0 | 0.00 | 0.00 | 0.00 | 57 | 1016.4 |
| 20260906022122 | 69 | 273 | 3.0 | 14.0 | 0.00 | 0.00 | 0.00 | 54 | 1016.3 |
| 20260906021124 | 70 | 283 | 2.0 | 11.0 | 0.00 | 0.00 | 0.00 | 53 | 1016.4 |
| 20260906020122 | 70 | 273 | 3.0 | 13.0 | 0.00 | 0.00 | 0.00 | 52 | 1016.3 |
| 20260906015122 | 71 | 282 | 3.0 | 11.0 | 0.00 | 0.00 | 0.00 | 51 | 1016.2 |
| 20260906014124 | 72 | 294 | 3.0 | 11.0 | 0.00 | 0.00 | 0.00 | 50 | 1016.1 |
| 20260906013122 | 72 | 282 | 2.0 | 13.0 | 0.00 | 0.00 | 0.00 | 50 | 1015.9 |
| 20260906012143 | 72 | 280 | 2.0 | 10.0 | 0.00 | 0.00 | 0.00 | 50 | 1015.7 |
| 20260906011124 | 72 | 294 | 4.0 | 16.0 | 0.00 | 0.00 | 0.00 | 51 | 1015.7 |
| 20260906010122 | 73 | 278 | 3.0 | 13.0 | 0.00 | 0.00 | 0.00 | 50 | 1015.5 |
| 20260906005145 | 73 | 264 | 4.0 | 13.0 | 0.00 | 0.00 | 0.00 | 49 | 1015.4 |
| 20260906004124 | 74 | 274 | 4.0 | 14.0 | 0.00 | 0.00 | 0.00 | 49 | 1015.4 |
| 20260906003122 | 74 | 283 | 4.0 | 14.0 | 0.00 | 0.00 | 0.00 | 49 | 1015.4 |
| 20260906002124 | 74 | 272 | 3.0 | 11.0 | 0.00 | 0.00 | 0.00 | 49 | 1015.4 |
| 20260906001145 | 74 | 278 | 3.0 | 11.0 | 0.00 | 0.00 | 0.00 | 50 | 1015.4 |
| 20260906000122 | 74 | 241 | 3.0 | 13.0 | 0.00 | 0.00 | 0.00 | 50 | 1015.4 |
| 20260905235125 | 73 | 255 | 3.0 | 10.0 | 0.00 | 0.00 | 0.00 | 50 | 1015.5 |
| 20260905234122 | 73 | 268 | 4.0 | 13.0 | 0.00 | 0.00 | 0.00 | 50 | 1015.5 |
| 20260905233122 | 73 | 241 | 3.0 | 11.0 | 0.00 | 0.00 | 0.00 | 50 | 1015.6 |
| 20260905232123 | 74 | 247 | 3.0 | 11.0 | 0.00 | 0.00 | 0.00 | 49 | 1015.6 |
| 20260905231122 | 74 | 288 | 3.0 | 13.0 | 0.00 | 0.00 | 0.00 | 50 | 1015.7 |
| 20260905230122 | 73 | 302 | 4.0 | 13.0 | 0.00 | 0.00 | 0.00 | 52 | 1015.8 |
| 20260905225123 | 74 | 263 | 3.0 | 13.0 | 0.00 | 0.00 | 0.00 | 52 | 1015.8 |
| 20260905224124 | 73 | 303 | 3.0 | 14.0 | 0.00 | 0.00 | 0.00 | 53 | 1015.9 |
| 20260905223143 | 73 | 255 | 4.0 | 14.0 | 0.00 | 0.00 | 0.00 | 55 | 1016.0 |
| 20260905222122 | 73 | 283 | 3.0 | 13.0 | 0.00 | 0.00 | 0.00 | 56 | 1015.9 |
| 20260905221124 | 72 | 282 | 4.0 | 14.0 | 0.00 | 0.00 | 0.00 | 56 | 1015.8 |
| 20260905220125 | 73 | 257 | 4.0 | 18.0 | 0.00 | 0.00 | 0.00 | 56 | 1015.9 |
| 20260905215122 | 73 | 256 | 5.0 | 14.0 | 0.00 | 0.00 | 0.00 | 57 | 1016.0 |
| 20260905214122 | 73 | 266 | 4.0 | 14.0 | 0.00 | 0.00 | 0.00 | 58 | 1016.0 |
| 20260905213122 | 72 | 281 | 4.0 | 16.0 | 0.00 | 0.00 | 0.00 | 59 | 1016.1 |
| 20260905212122 | 72 | 265 | 4.0 | 14.0 | 0.00 | 0.00 | 0.00 | 58 | 1016.1 |
| 20260905211122 | 72 | 288 | 4.0 | 18.0 | 0.00 | 0.00 | 0.00 | 59 | 1016.1 |
| 20260905210143 | 72 | 298 | 3.0 | 11.0 | 0.00 | 0.00 | 0.00 | 58 | 1016.1 |
| 20260905205122 | 72 | 278 | 4.0 | 16.0 | 0.00 | 0.00 | 0.00 | 57 | 1016.2 |
| 20260905204123 | 72 | 287 | 3.0 | 13.0 | 0.00 | 0.00 | 0.00 | 57 | 1016.2 |
| 20260905203124 | 72 | 268 | 3.0 | 13.0 | 0.00 | 0.00 | 0.00 | 56 | 1016.3 |
| 20260905202124 | 71 | 270 | 4.0 | 14.0 | 0.00 | 0.00 | 0.00 | 56 | 1016.3 |
| 20260905201145 | 71 | 235 | 4.0 | 11.0 | 0.00 | 0.00 | 0.00 | 57 | 1016.3 |
| 20260905200124 | 71 | 256 | 3.0 | 13.0 | 0.00 | 0.00 | 0.00 | 57 | 1016.4 |
| 20260905195145 | 70 | 266 | 5.0 | 16.0 | 0.00 | 0.00 | 0.00 | 60 | 1016.4 |
| 20260905194122 | 70 | 267 | 4.0 | 16.0 | 0.00 | 0.00 | 0.00 | 61 | 1016.5 |
| 20260905193143 | 70 | 249 | 4.0 | 13.0 | 0.00 | 0.00 | 0.00 | 61 | 1016.5 |
| 20260905192122 | 70 | 237 | 5.0 | 14.0 | 0.00 | 0.00 | 0.00 | 62 | 1016.6 |
| 20260905191122 | 70 | 282 | 3.0 | 13.0 | 0.00 | 0.00 | 0.00 | 62 | 1016.6 |
| 20260905190123 | 69 | 239 | 1.0 | 10.0 | 0.00 | 0.00 | 0.00 | 62 | 1016.7 |
| 20260905185124 | 69 | 298 | 2.0 | 11.0 | 0.00 | 0.00 | 0.00 | 62 | 1016.7 |
| 20260905184143 | 68 | 2 | 0.0 | 3.0 | 0.00 | 0.00 | 0.00 | 63 | 1016.8 |
| 20260905183122 | 67 | 30 | 3.0 | 8.0 | 0.00 | 0.00 | 0.00 | 65 | 1016.9 |
| 20260905182143 | 67 | 354 | 2.0 | 11.0 | 0.00 | 0.00 | 0.00 | 65 | 1016.9 |
| 20260905181125 | 66 | 32 | 2.0 | 6.0 | 0.00 | 0.00 | 0.00 | 70 | 1017.0 |
| 20260905180122 | 65 | 25 | 2.0 | 6.0 | 0.00 | 0.00 | 0.00 | 69 | 1016.9 |
| 20260905175124 | 65 | 0 | 2.0 | 6.0 | 0.00 | 0.00 | 0.00 | 69 | 1017.0 |
| 20260905174145 | 65 | 15 | 3.0 | 11.0 | 0.00 | 0.00 | 0.00 | 67 | 1017.1 |
| 20260905173145 | 64 | 355 | 3.0 | 8.0 | 0.00 | 0.00 | 0.00 | 70 | 1017.1 |
| 20260905172122 | 64 | 336 | 2.0 | 8.0 | 0.00 | 0.00 | 0.00 | 70 | 1017.1 |
| 20260905171123 | 63 | 21 | 2.0 | 6.0 | 0.00 | 0.00 | 0.00 | 74 | 1017.0 |
| 20260905170145 | 63 | 30 | 2.0 | 6.0 | 0.00 | 0.00 | 0.00 | 76 | 1017.1 |